User: anonymous   Login
Location: Abraham Lincoln Continuation High School
(33.9711°N, 117.3662°W)
Time: 05:09:48
(UTC+00:00)
Language:

NOSS 3-2 (A) - Orbit

View from above orbital plane
View from above orbital plane
View from above satellite
View from above satellite

Ground track
Ground track

The orbit data is extracted from the following two-line orbital elements,

1 28095U 03054A   20327.15081875 0.00000000  00000-0  00000-0 0    08
2 28095  63.4234 347.5648 0416644 359.3425   0.6574 13.41394112    02
Epoch (UTC): 22 November 2020 03:37:10
Eccentricity: 0.0416644
inclination: 63.4234°
perigee height: 792 km
apogee height: 1416 km
right ascension of ascending node: 347.5648°
argument of perigee: 359.3425°
revolutions per day: 13.41394112
mean anomaly at epoch: 0.6574°
orbit number at epoch: 0

The dashed part of the orbit path shows where the satellite is in the earth's shadow,  

DLR